Regional Weather Roundup
Issued by NWS Upton, NY

Current Version | Previous Version | Text Only | Print | Product List | Glossary On
Versions: 1 2 3 4 5 6 7 8 9 10 11 12 13 14 15 16 17 18 19 20 21 22 23 24 25 26 27 28 29 30 31 32 33 34 35 36 37 38 39 40 41 42 43 44 45 46 47 48 49 50
000
ASUS41 KOKX 041802
RWROKX

REGIONAL WEATHER ROUNDUP
NATIONAL WEATHER SERVICE NEW YORK NY
200 PM EDT WED MAY 04 2016

NOTE: "FAIR" INDICATES FEW OR NO CLOUDS BELOW 12,000 FEET WITH NO
SIGNIFICANT WEATHER AND/OR OBSTRUCTIONS TO VISIBILITY.

NYZ071-072-176-178-NJZ106-104-041900-
NEW YORK CITY METRO AREA


CITY           SKY/WX    TMP DP  RH WIND       PRES   REMARKS
CENTRAL PARK   CLOUDY    50  44  80 E8        29.78F
LAGUARDIA APRT CLOUDY    51  48  89 NE16      29.75F
KENNEDY INTL   DRIZZLE   52  48  87 NE12      29.75F FOG
NEWARK/LIBERTY DRIZZLE   52  46  80 N14       29.76F
BRNX BOT. GARD   N/A     48  43  81 E13       29.78R
TETERBORO      CLOUDY    51  42  71 NE9G17    29.76F
$$

NYZ177-179-078>081-041900-
LONG ISLAND NEW YORK

CITY           SKY/WX    TMP DP  RH WIND       PRES   REMARKS
FARMINGDALE    CLOUDY    50  45  83 NE10      29.74F
ISLIP          CLOUDY    50  46  86 E12       29.74F
SHIRLEY        CLOUDY    50  46  86 VRB6      29.74F
RIVERHEAD        N/A     50  46  87 E7        29.73F
WESTHAMPTON    LGT RAIN  46  46 100 NE12      29.74F
EAST HAMPTON   CLOUDY    48  43  81 E13G21    29.77F
MONTAUK POINT    N/A     49  43  80 NE10G18   29.78F
$$

NYZ052-065-067-041900-
HUDSON VALLEY

CITY           SKY/WX    TMP DP  RH WIND       PRES   REMARKS
WHITE PLAINS   CLOUDY    50  43  77 E10G24    29.75F
NEWBURGH       CLOUDY    48  48 100 NE9       29.78F FOG
MONTGOMERY     LGT RAIN  49  47  93 NE6       29.77F FOG
POUGHKEEPSIE   CLOUDY    52  47  83 N5        29.78F
ALBANY         LGT RAIN  50  47  89 VRB3      29.80F
$$

NJZ001-105-106-008-010-013-015-019>022-104-041900-
NEW JERSEY

CITY           SKY/WX    TMP DP  RH WIND       PRES   REMARKS
NEWARK/LIBERTY DRIZZLE   52  46  80 N14       29.76F
TETERBORO      CLOUDY    51  42  71 NE9G17    29.76F
CALDWELL       CLOUDY    49  46  90 E10       29.77F FOG
MORRISTOWN     LGT RAIN  50  48  93 E10       29.77F FOG
SOMERVILLE     CLOUDY    52  47  83 NE8       29.73F
SUSSEX         CLOUDY    50  46  86 NE5       29.76F FOG
ANDOVER          N/A     50  47  89 VRB3      29.76S
TRENTON        CLOUDY    50  47  89 E12       29.73F
MILLVILLE      CLOUDY    52  49  89 NE10      29.68F
ATLANTIC CITY  RAIN      49  48  97 NE9G22    29.69S FOG
WRIGHTSTOWN    LGT RAIN  50  48  93 NE10      29.70F
TOMS RIVER     CLOUDY    48  43  81 NE15G22   29.71F THUNDER
BELMAR         RAIN      47  46  97 NE13G18   29.75S FOG
$$

PAZ047>061-062-071-041900-
EASTERN PENNSYLVANIA

CITY           SKY/WX    TMP DP  RH WIND       PRES   REMARKS
PHILADELPHIA   CLOUDY    53  47  79 NE10      29.71F
ALLENTOWN      CLOUDY    53  48  83 E12       29.74F HAZE
SCRANTON       CLOUDY    51  49  92 NE6       29.72F
$$

CTZ002-004>006-009-010-012-RIZ004-006-007-MAZ004-011-015-041900-
SOUTHERN NEW ENGLAND
 IN CT

CITY           SKY/WX    TMP DP  RH WIND       PRES   REMARKS
BRADLEY INTL   CLOUDY    51  42  71 NE9       29.80F
HARTFORD       CLOUDY    53  43  68 E9        29.79F
DANBURY        CLOUDY    50  43  77 E9        29.77F
WTRBRY/OXFORD  CLOUDY    48  41  76 E7        29.78F
BRIDGEPORT     CLOUDY    51  45  79 E16       29.76F
MERIDEN        CLOUDY    53  43  68 NE8       29.78F
NEW HAVEN      CLOUDY    50  46  86 E8        29.76F
CHESTER        DRIZZLE   48  46  93 VRB6G12   29.77F
GROTON         CLOUDY    52  47  83 NE17G25   29.77F
WILLIMANTIC    RAIN      51  44  77 NE10      29.80F

 IN RI

CITY           SKY/WX    TMP DP  RH WIND       PRES   REMARKS
PROVIDENCE     CLOUDY    52  39  61 NE16G22   29.82F
BLOCK ISLAND   CLOUDY    48  44  86 NE13G20   29.79F
WESTERLY       CLOUDY    53  41  63 NE9G17    29.78F

 IN MA

CITY           SKY/WX    TMP DP  RH WIND       PRES   REMARKS
BOSTON         CLOUDY    49  41  74 E15       29.86F
WORCESTER      LGT RAIN  45  39  79 E12G20    29.82F
WESTFIELD      CLOUDY    49  43  80 NE12      29.81F
PROVINCETOWN   CLOUDY    47  42  83 NE18      29.85F
NANTUCKET      LGT RAIN  47  44  90 NE14G28   29.79F
$$

ANZ330-335-338-340-345-350-353-355-041900-
COASTAL MARINE OBSERVATIONS


STATION/POSITION TIME  SKY/WX   TEMP    WIND        PRES    VSBY  WAVE
                                AIR SEA DIR/SP/G                  HT/PER
                 (UTC)          (F)     (DEG/KT/KT) (MB)    (MI)  (FT/S)
NY HARB ENTRANCE 1650            48 50   70/ 23/ 25 1006.6          5/ 5
20S FIRE ISLAND  1650            47 49   70/ 23/ 27 1006.2          5/ 5
GREAT SOUTH BAY  1700            49 55   60/ 19/ 25   N/A
23 SSW MONTAUK P 1750            46 47   60/ 23/ 29 1006.5          6/ 6
15 E BARNEGAT LI 1722               50                N/A           6/ 6
HUDSON CANYON    1650            50 48              1004.9          6/ 6
KINGS POINT      1700            50 53              1007.6
EXECUTION ROCKS  NOT AVBL
CENTRAL LI SOUND 1700            48      90/ 16/ 21   N/A           2/ 4
EASTERN LI SOUND 1700            49 47   90/ 14/ 19   N/A
ROBBINS REEF     1700            51      30/ 11/ 12 1007.2
$$


>>>>>>>>>>>>>>>>>>>>>>>>>>>> KEY <<<<<<<<<<<<<<<<<<<<<<<<<<<
>                                                          <
>     SKY/WX - SKY CONDITION/PRESENT WEATHER               <
>     TMP    - TEMPERATURE IN FAHRENHEIT                   <
>     DP     - DEWPOINT IN FAHRENHEIT                      <
>     RH     - RELATIVE HUMIDITY IN PERCENT                <
>     WIND   - DIRECTION AND SPEED IN MPH                  <
>     PRES   - MEAN SEA LEVEL PRESSURE IN INCHES OF HG     <
>     WCI    - WIND CHILL INDEX                            <
>     VSB    - VISIBILITY IN MILES                         <
>     HX     - HEAT INDEX                                  <
>     TC     - TEMPERATURE IN CELSIUS                      <
>     VRB    - VARIABLE WIND DIRECTION                     <
>                                                          <
>>>>>>>>>>>>>>>>>>>>>>>>>>>> KEY <<<<<<<<<<<<<<<<<<<<<<<<<<<





USA.gov is the U.S. government's official web portal to all federal, state and local government web resources and services.